Regional Weather Roundup
Issued by NWS

Home | Current Version | Previous Version | Graphics & Text | Print | Product List | Glossary On
Versions: 1 2 3 4 5 6 7 8 9 10 11 12 13 14 15 16 17 18 19 20 21 22 23 24 25 26 27 28 29 30 31 32 33 34 35 36 37 38 39 40 41 42 43 44 45 46 47 48 49 50
000
ASUS43 KMKX 241021
RWRWI

WISCONSIN REGIONAL WEATHER ROUNDUP
NATIONAL WEATHER SERVICE MILWAUKEE/SULLIVAN WI
500 AM CDT THU AUG 24 2017

NOTE: "FAIR" INDICATES FEW OR NO CLOUDS BELOW 12,000 FEET WITH NO
SIGNIFICANT WEATHER AND/OR OBSTRUCTIONS TO VISIBILITY.

WIZ001-002-006>008-014>016-023>028-241100-
NORTHWEST WISCONSIN

CITY           SKY/WX    TMP DP  RH WIND       PRES   REMARKS
SUPERIOR ARPT  FOG       46  46 100 CALM      30.13R VSB 3/4
ASHLAND        FOG       42  42 100 CALM      30.14S VSB 3/4
HAYWARD        FOG       48  47  96 CALM      30.14S VSB 1/2
SIREN          CLOUDY    53  52  98 CALM      30.13S FOG
CUMBERLAND     CLEAR     50  50 100 CALM      30.13S FOG
RICE LAKE      CLEAR     52  51  95 S3        30.15R
CHETEK         PTCLDY    52  51  97 CALM      30.13S
LADYSMITH      CLOUDY    54  50  87 CALM      30.15S
EAU CLAIRE     CLOUDY    54  49  83 SE3       30.12F
MENOMONIE      DRIZZLE   55  53  93 E7        30.13R
NEW RICHMOND   LGT RAIN  55  54  97 E5        30.12S
OSCEOLA        CLOUDY    56  56 100 CALM      30.15S
$$

WIZ003>005-009-010-017-018-241100-
NORTH CENTRAL WISCONSIN

CITY           SKY/WX    TMP DP  RH WIND       PRES   REMARKS
MANITOWISH WTR FOG       37  37 100 CALM      30.15R VSB 1
ARBOR VITAE    CLEAR     43  42  95 CALM      30.14S FOG
WOODRUFF       CLEAR     43  42  95 CALM      30.14S FOG
RHINELANDER    CLOUDY    45  44  97 CALM      30.14S
EAGLE RIVER    CLOUDY    40  40 100 CALM      30.14R FOG
LAND O LAKES   CLEAR     37  37 100 CALM      30.16S
PHILLIPS       CLOUDY    47  47  99 CALM      30.14S
TOMAHAWK         N/A     46  44  94 CALM      30.15R
MEDFORD        CLOUDY    49  47  90 CALM      30.14R
MERRILL        CLOUDY    48  46  93 CALM      30.15R
$$

WIZ029-030-035-036-043>047-241100-
CENTRAL WISCONSIN

CITY           SKY/WX    TMP DP  RH WIND       PRES   REMARKS
WAUSAU         CLOUDY    52  42  69 E3        30.13R
MOSINEE        CLOUDY    50  43  76 NE3       30.15R
MARSHFIELD     LGT RAIN  52  47  83 CALM      30.12S
STEVENS POINT  CLOUDY    50  46  87 N5        30.14R
WAUPACA        CLOUDY    54  48  80 CALM      30.12F
WAUTOMA        NOT AVBL
WISC RAPIDS    LGT RAIN  52  48  86 CALM      30.14R
CAMP DOUGLAS   CLOUDY    51  51  99 CALM      30.12R
$$

WIZ011>013-019>022-031-037>040-048>050-241100-
NORTHEAST WISCONSIN

CITY           SKY/WX    TMP DP  RH WIND       PRES   REMARKS
ANTIGO         CLOUDY    47  45  94 CALM      30.14S
SHAWANO        CLOUDY    52  45  75 NW3       30.12R
OCONTO         CLOUDY    50  44  78 N3        30.11S
STURGEON BAY   NOT AVBL
GREEN BAY      CLOUDY    52  46  80 N5        30.11S
MANITOWOC      CLOUDY    55  48  77 N6        30.11R
APPLETON       CLOUDY    52  39  62 N6        30.10R
CLINTONVILLE   CLOUDY    52  45  76 N3        30.12R
OSHKOSH        NOT AVBL
$$

WIZ032>034-041-042-053>061-241100-
SOUTHWEST WISCONSIN

CITY           SKY/WX    TMP DP  RH WIND       PRES   REMARKS
LA CROSSE      CLOUDY    60  51  72 CALM      30.11R
SPARTA         CLOUDY    50  49  97 CALM      30.12S
VIROQUA        CLOUDY    54  52  94 CALM      30.11S
BOSCOBEL       NOT AVBL
PRAIRIE DU CHI PTCLDY    55  53  94 CALM      30.11R
PLATTEVILLE    PTCLDY    56  55  97 N3        30.10R
$$

WIZ056-057-062-063-064-067-068-241100-
SOUTH CENTRAL WISCONSIN

CITY           SKY/WX    TMP DP  RH WIND       PRES   REMARKS
REEDSBURG      MOCLDY    53  52  96 CALM      30.10S
BARABOO/DELLS  LGT RAIN  51  48  90 CALM      30.11R
LONE ROCK      PTCLDY    51  50  96 W5        30.10S
MINERAL POINT  CLOUDY    55  54  94 N3        30.10R
MADISON        NOT AVBL
MIDDLETON      CLOUDY    53  53 100 W5        30.10S
WATERTOWN      PTCLDY    55  55 100 N3        30.08R
MONROE         CLEAR     55  50  82 N5        30.09R
JANESVILLE     CLEAR     52  52 100 NW3       30.07R
$$

WIZ051-052-058>065-066-070>072-241100-
SOUTHEAST WISCONSIN

CITY           SKY/WX    TMP DP  RH WIND       PRES   REMARKS
MILWAUKEE      MOCLDY    60  53  77 N7        30.05S
WAUKESHA       CLOUDY    54  50  87 N3        30.08R
MILWAUKEE/TIMM CLOUDY    55  50  82 N6        30.07R
RACINE         CLEAR     57  54  89 W7        30.06S
KENOSHA        CLEAR     54  51  90 W3        30.05S
FOND DU LAC    CLOUDY    58  48  69 NE9       30.11R
SHEBOYGAN      CLOUDY    56  53  90 N7        30.09R
WEST BEND      CLOUDY    55  55 100 NE5       30.08R
JUNEAU         CLOUDY    55  53  94 N3        30.09S
$$

LSZ147-162-241100-
LAKE SUPERIOR

STATION/POSITION TIME  TEMP    WIND        PRES    WAVE
                       AIR SEA DIR/SP/G            HT/PER
                 (UTC) (F)     (DEG/KT/KT) (MB)    (FT/S)
W MID LAKE BUOY  0950   59 59   60/  2/  2 1020.2R   1/ 3
DEVILS ISLAND    1000   59      30/  4/  5 1020.7R
SAXON HARBOR     0930   47     180/  5/  8 1020.0S
$$

LMZ867-665-643>646-241100-
LAKE MICHIGAN

STATION/POSITION TIME  TEMP    WIND        PRES    WAVE
                       AIR SEA DIR/SP/G            HT/PER
                 (UTC) (F)     (DEG/KT/KT) (MB)    (FT/S)
S GREEN BAY BUOY 1000   58 69  360/ 14/ 17 1019.1
N MID LAKE BUOY  0950   58 65  340/ 12/ 16 1019.2R   2/ 4
NORTHPORT PIER   0940   59     350/ 11/ 15 1019.0S
KEWAUNEE LAKESHO 0954   56     350/  5/  7 1018.2R
SHEBOYGAN LAKESH 1000   62      40/ 13/ 16 1018.5R
PORT WASHINGTON  0940   63      40/ 13/ 17 1018.6S
ATWATER BUOY     0909   62 68  350/ 14/ 16 1017.4S
MILWAUKEE LAKESH 1000   62     350/ 11/ 13   N/A
S MID LAKE BUOY  0950   67 71  100/ 14/ 16 1016.4F   1/ 4
KENOSHA   LAKESH 1000   60     270/  8/ 10 1017.3
$$

TC  - TEMPERATURE IN CELSIUS
VSB - VISIBILITY IN STATUTE MILES
WCI - WIND CHILL INDEX
HX  - HEAT INDEX





USA.gov is the U.S. government's official web portal to all federal, state and local government web resources and services.